Wind_Speed
4 4 4 5 6 7 9 10 10 10 9 9 9 9 9 8 8 8 8 7 7 7 6 6 6 6 7 7 7 7 7 7 7 7 7 7 7 7 7 8 8 8 8
3 3 3 4 5 7 8 9 10 9 9 9 9 9 9 8 8 7 7 6 6 5 6 6 6 6 6 6 7 7 7 7 7 7 7 7 8 8 8 8 8 9 9
2 2 2 3 4 6 7 8 9 9 9 8 8 8 8 8 7 7 7 6 6 5 5 5 5 5 5 6 6 6 6 7 7 7 7 7 8 8 8 8 8 8 8
1 1 2 3 4 5 6 7 8 8 8 7 7 8 7 7 8 7 6 6 5 5 5 5 5 5 5 6 6 6 6 6 7 7 7 7 8 8 8 8 8 8 8
2 1 2 3 4 5 6 6 7 7 6 6 6 7 7 6 7 7 6 6 5 5 5 5 5 5 5 5 5 5 5 6 6 6 7 7 7 7 7 7 8 8 8
1 2 2 3 3 4 5 5 6 6 6 6 6 6 6 6 6 6 6 6 5 5 5 5 5 4 4 5 5 5 5 6 6 6 6 6 6 7 6 6 6 7 7
1 2 2 3 3 3 4 5 5 5 5 6 6 6 6 5 4 5 5 6 5 5 4 4 4 4 4 4 4 4 5 6 6 6 5 6 6 6 5 5 5 6 6
1 2 2 3 3 3 3 4 4 4 4 5 5 5 5 4 3 4 5 4 4 4 4 3 3 3 3 3 3 4 4 5 5 5 5 5 5 5 5 4 4 5 5
2 2 3 3 4 4 3 4 4 4 3 3 4 4 4 3 3 3 4 3 3 3 3 3 2 2 2 3 3 3 4 5 5 4 4 4 4 4 4 4 4 4 4
2 2 3 4 4 4 4 4 4 4 4 3 3 3 3 3 3 2 3 3 3 2 2 2 2 2 2 2 2 3 4 4 4 3 4 4 3 3 3 3 3 3 3
3 2 2 4 4 5 5 5 4 4 4 4 3 3 3 3 2 2 2 2 2 2 1 1 1 2 2 2 2 3 3 3 3 2 2 2 2 3 2 2 2 2 2
4 3 3 4 4 5 6 6 5 5 5 4 4 4 4 3 3 2 2 1 1 1 1 1 1 2 1 2 2 2 2 2 2 2 2 2 2 2 2 1 1 1 1
4 4 4 5 5 5 5 7 7 6 6 5 5 4 4 4 4 3 2 1 1 0 1 1 2 2 2 1 1 1 1 1 0 1 1 1 1 0 0 0 0 1 1
5 4 5 5 5 6 6 7 8 7 7 6 6 6 5 5 5 4 3 2 2 1 1 2 2 2 2 2 1 1 1 1 1 0 0 1 1 1 1 1 1 1 1
6 6 6 6 6 6 7 8 8 8 8 8 8 8 7 7 6 5 5 4 3 3 3 2 3 3 3 2 2 2 2 2 2 1 1 1 1 1 1 1 1 2 2
7 7 7 7 8 8 8 8 9 9 9 8 8 9 9 9 8 6 5 5 5 4 4 4 4 4 3 3 3 2 2 2 3 2 1 1 1 1 1 2 2 2 2
8 8 7 8 8 9 9 9 9 10 10 10 10 9 10 10 9 8 7 6 6 5 5 5 4 4 4 4 3 3 3 2 2 2 2 2 2 2 2 2 2 2 2
10 9 9 9 9 10 10 10 11 10 11 11 12 11 11 11 11 10 9 8 7 7 7 6 5 5 5 4 4 4 4 3 3 2 2 2 3 3 3 2 2 2 2
11 10 10 10 10 11 11 11 12 12 12 12 12 12 12 12 11 11 11 10 8 8 8 8 7 7 6 5 4 4 4 3 3 3 2 2 2 2 2 1 1 2 2
11 12 11 12 11 11 13 13 13 14 13 13 13 13 13 12 12 12 12 10 10 9 9 9 8 8 7 6 5 5 5 4 4 3 2 2 2 2 2 2 2 2 3
12 12 12 12 12 12 12 13 14 15 15 15 14 14 14 14 13 13 13 11 10 9 9 9 9 9 8 7 6 6 6 5 4 4 3 3 2 3 3 3 3 3 3
13 13 13 14 14 14 14 14 15 16 17 17 16 15 15 15 14 14 14 12 11 11 10 10 10 10 10 9 8 7 6 6 4 4 4 3 2 2 3 3 3 3 3
13 14 14 14 15 15 16 16 16 17 18 17 16 16 17 15 15 15 15 14 13 12 11 11 12 12 11 10 9 8 8 7 6 5 5 4 3 3 3 3 3 3 3
14 15 15 15 16 16 17 16 17 17 19 19 17 17 17 17 15 15 15 15 14 14 14 13 13 13 12 11 10 10 9 8 7 7 6 4 4 3 3 3 3 4 4
14 15 16 17 17 16 16 16 16 18 19 20 19 18 17 17 17 16 16 17 16 16 15 15 15 14 13 13 12 11 11 10 10 8 7 6 5 5 4 4 4 4 4
14 15 16 17 16 16 16 15 16 17 19 19 19 18 18 18 18 18 18 18 18 18 17 17 16 16 15 14 14 13 12 12 11 10 9 8 7 7 6 5 5 5 5
Wind_Direction
89 90 102 104 107 107 103 98 94 87 84 82 80 78 78 80 81 83 87 92 92 90 90 87 85 86 86 87 85 82 81 81 81 83 86 88 87 86 88 90 91 93 93
83 87 101 108 110 111 106 102 96 91 86 83 81 79 78 78 77 78 80 85 84 83 85 86 84 83 82 85 84 82 80 78 80 84 90 93 91 90 91 93 96 96 94
88 99 116 114 114 110 109 107 102 96 92 88 84 79 76 77 76 76 77 76 78 77 78 81 81 80 81 82 79 79 80 80 82 84 90 92 93 92 95 97 96 96 95
91 124 142 129 118 111 110 109 104 100 96 89 86 80 77 77 77 76 73 71 72 72 72 73 77 81 83 82 78 77 78 82 85 86 88 89 91 93 97 97 95 94 94
100 140 158 142 129 120 116 112 108 106 102 96 91 83 80 81 77 74 74 72 73 75 73 76 81 83 84 81 77 76 78 80 86 87 88 89 89 91 96 96 95 94 94
123 149 165 154 137 125 125 121 115 113 111 104 96 91 85 82 78 76 77 76 76 76 73 75 78 80 81 79 78 78 80 80 86 88 88 90 88 89 91 95 96 96 96
166 170 167 158 143 128 132 134 127 121 118 110 101 96 93 91 86 80 76 75 71 69 68 69 73 79 78 80 83 81 82 86 91 89 86 86 83 87 90 93 96 98 97
207 191 182 175 163 149 143 144 141 137 129 121 111 107 102 94 97 88 78 66 64 62 64 68 69 75 81 87 89 86 88 93 92 86 83 81 81 85 88 90 92 98 96
241 216 197 185 174 165 159 158 160 160 153 142 129 123 117 108 103 94 81 69 62 61 64 65 65 79 88 97 98 97 94 90 89 80 80 78 82 85 86 86 93 97 97
266 241 213 199 190 189 187 182 180 179 175 166 151 143 136 125 114 99 84 70 59 56 63 62 75 88 94 100 105 107 100 90 85 75 75 74 73 80 84 83 85 95 98
290 259 217 202 202 201 199 197 196 192 190 186 174 163 159 151 144 129 105 76 63 58 68 69 93 109 107 108 113 117 107 93 75 67 70 71 71 77 80 78 77 93 98
294 272 237 217 205 202 203 205 205 203 205 202 194 186 180 175 173 168 160 125 83 72 84 96 115 136 131 121 125 131 118 102 74 60 65 74 78 79 76 78 83 83 91
295 276 245 229 222 217 212 211 211 213 215 213 209 207 200 193 189 192 197 190 164 135 129 128 130 151 162 151 151 160 151 150 38 41 58 70 60 74 25 24 98 122 110
291 281 256 240 238 234 224 218 220 219 218 218 218 218 217 211 206 208 215 217 215 215 202 174 179 180 183 178 185 200 209 229 253 239 120 29 2 333 309 276 234 216 218
289 282 265 248 239 237 233 229 228 225 221 225 227 222 221 219 218 222 226 231 230 228 225 211 209 205 204 204 217 225 242 257 239 226 242 313 323 329 317 285 248 239 248
288 280 270 254 242 235 236 234 229 226 226 225 225 222 221 221 225 228 231 235 234 230 229 221 217 218 216 216 227 238 251 255 245 236 240 284 307 320 314 297 264 250 252
280 276 270 251 239 235 235 233 229 230 228 228 224 223 222 224 228 233 235 237 238 233 232 228 225 225 222 221 226 241 241 237 249 241 256 275 290 303 303 294 266 258 261
274 271 265 255 243 235 232 231 233 234 233 231 226 225 225 226 230 235 236 235 236 234 231 228 228 221 219 224 232 236 238 238 249 255 262 273 283 296 305 294 267 255 259
269 270 267 259 251 239 233 235 239 238 236 232 230 228 230 230 229 231 233 233 233 233 229 228 227 222 220 220 228 229 230 229 241 247 261 276 286 290 293 294 266 261 268
266 265 264 261 256 246 240 240 239 239 238 235 234 232 230 231 230 230 231 231 232 232 228 223 220 218 216 214 220 222 223 224 232 243 250 259 278 280 281 279 270 267 269
270 267 266 264 258 249 247 242 237 237 236 237 236 235 232 232 231 229 228 230 229 227 223 219 218 218 214 214 217 220 221 221 224 233 242 257 278 283 280 277 282 283 274
271 266 266 265 258 251 246 240 235 235 233 234 233 234 234 231 228 229 226 226 225 222 220 220 220 219 219 219 221 221 220 220 225 233 237 245 265 280 283 277 283 294 291
273 266 263 264 260 252 246 240 237 235 234 232 229 232 234 233 235 236 228 224 222 221 221 219 219 219 221 223 223 226 228 231 236 238 238 239 260 283 284 277 285 300 303
277 266 264 264 259 254 245 241 236 234 232 229 228 231 232 231 233 231 230 225 223 225 224 221 218 218 220 221 223 226 227 231 235 234 237 243 263 276 284 286 289 297 299
274 270 265 261 259 253 246 242 238 235 231 227 227 230 229 229 229 230 230 228 226 226 225 224 221 221 221 222 223 225 228 232 232 232 233 243 256 265 274 282 289 294 293
277 272 271 262 257 250 243 240 236 232 230 230 231 230 229 229 230 229 228 229 229 227 226 225 222 222 223 224 225 227 230 234 236 236 238 243 250 258 264 270 276 283 287
Height
5871 5871 5872 5873 5874 5874 5875 5875 5876 5878 5879 5880 5881 5882 5883 5883 5884 5885 5885 5886 5887 5887 5888 5888 5888 5889 5889 5889 5889 5889 5890 5890 5890 5890 5890 5890 5890 5890 5890 5890 5891 5891 5891
5871 5872 5873 5874 5874 5875 5875 5876 5877 5879 5880 5881 5882 5883 5884 5885 5886 5886 5887 5887 5888 5889 5889 5889 5890 5890 5890 5890 5890 5890 5891 5891 5891 5891 5891 5891 5891 5892 5892 5892 5892 5892 5892
5872 5873 5874 5874 5875 5876 5876 5877 5878 5879 5881 5882 5883 5884 5885 5886 5887 5888 5888 5889 5889 5890 5890 5890 5890 5891 5891 5891 5891 5892 5892 5892 5892 5892 5892 5893 5893 5893 5893 5893 5893 5893 5893
5872 5873 5874 5875 5875 5876 5877 5878 5879 5880 5882 5883 5884 5885 5886 5887 5888 5889 5889 5890 5890 5891 5891 5891 5891 5892 5892 5892 5892 5893 5893 5893 5893 5893 5893 5894 5894 5894 5894 5894 5894 5894 5894
5872 5873 5874 5875 5876 5877 5878 5879 5880 5881 5882 5884 5885 5886 5887 5888 5889 5889 5890 5891 5891 5891 5892 5892 5893 5893 5893 5893 5893 5894 5894 5894 5894 5894 5894 5894 5895 5895 5895 5895 5895 5895 5895
5873 5873 5874 5875 5876 5877 5878 5879 5880 5882 5883 5884 5885 5886 5887 5888 5889 5890 5891 5891 5892 5892 5893 5893 5893 5894 5894 5894 5894 5894 5895 5895 5895 5895 5895 5895 5896 5896 5896 5896 5896 5896 5896
5873 5873 5874 5875 5876 5877 5878 5879 5881 5882 5883 5885 5886 5887 5888 5889 5890 5891 5891 5892 5892 5893 5893 5894 5894 5894 5895 5895 5895 5895 5895 5895 5896 5896 5896 5896 5896 5896 5897 5897 5897 5897 5897
5873 5873 5874 5875 5876 5877 5878 5880 5881 5882 5884 5885 5886 5887 5888 5889 5890 5891 5891 5892 5892 5893 5893 5894 5894 5895 5895 5896 5896 5896 5896 5896 5897 5897 5897 5897 5897 5897 5897 5897 5898 5898 5898
5873 5873 5874 5875 5876 5877 5878 5880 5881 5882 5884 5885 5886 5887 5888 5889 5890 5891 5892 5892 5893 5893 5894 5894 5895 5895 5896 5896 5896 5897 5897 5897 5897 5898 5898 5898 5898 5898 5898 5898 5898 5898 5898
5872 5873 5873 5874 5875 5876 5878 5879 5881 5882 5883 5884 5886 5887 5888 5889 5890 5891 5892 5892 5893 5893 5894 5894 5895 5895 5896 5896 5896 5897 5897 5898 5898 5898 5898 5899 5899 5899 5899 5899 5899 5899 5899
5872 5872 5872 5873 5874 5876 5877 5878 5880 5881 5883 5884 5885 5886 5887 5889 5890 5891 5892 5892 5893 5893 5894 5894 5895 5895 5896 5896 5897 5897 5898 5898 5898 5899 5899 5899 5899 5899 5899 5899 5900 5899 5899
5871 5871 5872 5873 5874 5875 5876 5878 5879 5881 5882 5884 5885 5886 5887 5888 5889 5890 5891 5892 5893 5893 5894 5894 5895 5895 5896 5896 5897 5897 5898 5898 5899 5899 5899 5899 5899 5899 5900 5900 5900 5900 5900
5870 5870 5871 5871 5873 5874 5875 5877 5878 5880 5881 5883 5884 5885 5886 5888 5889 5890 5891 5892 5893 5893 5894 5894 5895 5895 5896 5897 5897 5898 5898 5898 5899 5899 5899 5899 5899 5899 5900 5900 5900 5900 5900
5868 5869 5869 5870 5871 5873 5874 5875 5877 5878 5880 5881 5883 5884 5885 5887 5888 5889 5890 5891 5892 5893 5894 5894 5895 5895 5896 5896 5897 5897 5898 5898 5899 5899 5899 5899 5899 5900 5900 5900 5900 5900 5900
5867 5867 5868 5869 5870 5871 5872 5874 5875 5877 5878 5880 5881 5883 5884 5886 5887 5888 5889 5891 5892 5892 5893 5894 5895 5895 5896 5896 5897 5897 5898 5898 5899 5899 5899 5899 5899 5899 5899 5899 5899 5899 5900
5865 5866 5866 5867 5868 5869 5870 5872 5873 5875 5876 5878 5880 5881 5882 5884 5885 5887 5888 5890 5891 5892 5892 5893 5894 5895 5895 5896 5897 5897 5897 5898 5898 5899 5899 5899 5899 5899 5899 5899 5899 5899 5899
5864 5864 5864 5865 5866 5867 5868 5870 5871 5873 5874 5876 5878 5879 5881 5882 5884 5886 5887 5888 5889 5890 5891 5892 5893 5894 5894 5895 5896 5896 5897 5897 5898 5898 5899 5899 5899 5899 5898 5898 5898 5898 5898
5861 5862 5862 5863 5864 5865 5866 5868 5869 5871 5872 5874 5876 5877 5879 5881 5882 5884 5885 5887 5888 5889 5890 5891 5892 5893 5894 5894 5895 5896 5896 5897 5897 5898 5898 5898 5898 5898 5898 5898 5898 5898 5898
5859 5859 5859 5861 5862 5862 5864 5865 5867 5868 5870 5871 5873 5875 5877 5878 5880 5882 5883 5885 5886 5888 5889 5890 5891 5892 5893 5894 5894 5895 5896 5896 5897 5897 5897 5898 5898 5897 5897 5897 5897 5897 5897
5856 5857 5857 5858 5859 5860 5861 5862 5864 5866 5867 5869 5870 5872 5874 5876 5878 5879 5881 5883 5884 5886 5887 5888 5890 5891 5892 5893 5893 5894 5895 5895 5896 5896 5897 5897 5897 5897 5897 5897 5897 5897 5897
5853 5854 5854 5855 5856 5857 5858 5859 5860 5863 5864 5866 5867 5869 5872 5874 5875 5877 5879 5880 5882 5884 5885 5887 5888 5890 5891 5892 5893 5893 5894 5895 5895 5896 5896 5896 5897 5896 5896 5896 5896 5896 5896
5850 5850 5851 5852 5852 5853 5854 5855 5857 5858 5860 5862 5865 5867 5869 5870 5873 5875 5876 5878 5880 5882 5883 5885 5887 5888 5890 5891 5892 5892 5893 5895 5895 5895 5896 5896 5896 5896 5896 5896 5896 5895 5895
5847 5847 5848 5849 5849 5849 5850 5851 5853 5855 5857 5859 5861 5864 5866 5868 5870 5872 5874 5876 5878 5880 5881 5883 5885 5886 5888 5889 5890 5892 5892 5893 5894 5895 5895 5895 5895 5895 5895 5895 5895 5895 5895
5844 5844 5845 5845 5845 5845 5846 5847 5849 5851 5854 5856 5858 5861 5863 5865 5867 5869 5871 5873 5875 5877 5879 5881 5883 5884 5886 5888 5889 5890 5891 5892 5893 5894 5894 5894 5894 5894 5894 5894 5894 5894 5894
5841 5841 5841 5841 5841 5841 5842 5843 5845 5847 5849 5852 5854 5857 5859 5862 5864 5866 5868 5871 5873 5875 5877 5879 5881 5882 5884 5886 5887 5888 5889 5890 5891 5892 5893 5894 5894 5894 5894 5894 5893 5893 5893
5838 5837 5837 5837 5837 5837 5838 5839 5841 5843 5846 5848 5851 5853 5856 5858 5860 5863 5865 5868 5870 5872 5874 5876 5878 5880 5882 5883 5885 5886 5887 5889 5890 5890 5891 5892 5892 5893 5893 5893 5892 5892 5892